Meteo pe oră la Bolshoe Kirdyashevo

Astăzi, 6 Mai, Joi

Timp Temperatura Precipitaţii Vânt Presiune Umiditate
00:00 +7°C° 0 mm 4 m/s 746 mmHg 76%
01:00 +7°C° 0 mm 4 m/s 746 mmHg 78%
02:00 +6°C° 0 mm 4 m/s 746 mmHg 81%
03:00 +6°C° 0 mm 4 m/s 746 mmHg 84%
04:00 +6°C° 0 mm 4 m/s 746 mmHg 84%
05:00 +8°C° 0 mm 3 m/s 746 mmHg 83%
06:00 +8°C° 0 mm 3 m/s 747 mmHg 83%
07:00 +10°C° 0 mm 4 m/s 747 mmHg 77%
08:00 +12°C° 0 mm 5 m/s 747 mmHg 72%
09:00 +13°C° 0 mm 6 m/s 747 mmHg 66%
10:00 +14°C° 0 mm 6 m/s 747 mmHg 62%
11:00 +15°C° 0 mm 7 m/s 747 mmHg 59%
12:00 +16°C° 0 mm 7 m/s 747 mmHg 56%
13:00 +16°C° 0 mm 7 m/s 747 mmHg 56%
14:00 +16°C° 0 mm 6 m/s 746 mmHg 56%
15:00 +17°C° 0 mm 6 m/s 746 mmHg 57%
16:00 +16°C° 0 mm 6 m/s 746 mmHg 60%
17:00 +15°C° 0 mm 6 m/s 746 mmHg 62%
18:00 +14°C° 0 mm 5 m/s 746 mmHg 65%
19:00 +13°C° 0 mm 5 m/s 746 mmHg 69%
20:00 +12°C° 0 mm 4 m/s 746 mmHg 73%
21:00 +11°C° 0 mm 4 m/s 746 mmHg 77%
22:00 +11°C° 0 mm 4 m/s 746 mmHg 76%
23:00 +11°C° 0 mm 4 m/s 746 mmHg 76%

Mâine, 7 Mai, Vineri

Timp Temperatura Precipitaţii Vânt Presiune Umiditate
00:00 +10°C° 0 mm 4 m/s 745 mmHg 76%
01:00 +9°C° 0 mm 5 m/s 745 mmHg 74%
02:00 +9°C° 0 mm 5 m/s 745 mmHg 73%
03:00 +9°C° 0 mm 5 m/s 745 mmHg 72%
04:00 +9°C° 0 mm 5 m/s 745 mmHg 72%
05:00 +10°C° 0 mm 4 m/s 745 mmHg 72%
06:00 +11°C° 0 mm 4 m/s 745 mmHg 73%
07:00 +11°C° 0 mm 4 m/s 745 mmHg 72%
08:00 +12°C° 0 mm 4 m/s 745 mmHg 71%
09:00 +13°C° 0 mm 4 m/s 745 mmHg 69%
10:00 +12°C° 0.3 mm 5 m/s 746 mmHg 73%
11:00 +12°C° 0.3 mm 5 m/s 746 mmHg 77%
12:00 +10°C° 0.3 mm 6 m/s 746 mmHg 81%
13:00 +9°C° 0.5 mm 5 m/s 747 mmHg 83%
14:00 +8°C° 0.5 mm 4 m/s 747 mmHg 86%
15:00 +8°C° 0.5 mm 2 m/s 748 mmHg 88%
16:00 +9°C° 0 mm 2 m/s 748 mmHg 84%
17:00 +9°C° 0 mm 2 m/s 748 mmHg 80%
18:00 +11°C° 0 mm 1 m/s 748 mmHg 76%
19:00 +10°C° 0 mm 1 m/s 748 mmHg 81%
20:00 +9°C° 0 mm 1 m/s 748 mmHg 85%
21:00 +8°C° 0 mm 1 m/s 749 mmHg 90%
22:00 +7°C° 0 mm 1 m/s 749 mmHg 90%
23:00 +7°C° 0 mm 1 m/s 749 mmHg 89%

Poimâine, 8 Mai, Sâmbătă

Timp Temperatura Precipitaţii Vânt Presiune Umiditate
00:00 +7°C° 0 mm 1 m/s 749 mmHg 89%
01:00 +6°C° 0 mm 1 m/s 749 mmHg 89%
02:00 +6°C° 0 mm 1 m/s 749 mmHg 89%
03:00 +6°C° 0 mm 1 m/s 749 mmHg 88%
04:00 +6°C° 0 mm 1 m/s 748 mmHg 88%
05:00 +7°C° 0 mm 1 m/s 748 mmHg 87%
06:00 +7°C° 0 mm 1 m/s 748 mmHg 86%
07:00 +8°C° 0 mm 2 m/s 748 mmHg 82%
08:00 +10°C° 0 mm 3 m/s 748 mmHg 78%
09:00 +11°C° 0 mm 3 m/s 747 mmHg 74%
10:00 +13°C° 0 mm 4 m/s 747 mmHg 68%
11:00 +14°C° 0 mm 5 m/s 746 mmHg 63%
12:00 +15°C° 0 mm 6 m/s 746 mmHg 57%
13:00 +16°C° 0 mm 6 m/s 746 mmHg 56%
14:00 +16°C° 0 mm 5 m/s 745 mmHg 55%
15:00 +16°C° 0 mm 5 m/s 745 mmHg 53%
16:00 +16°C° 0 mm 6 m/s 744 mmHg 58%
17:00 +16°C° 0 mm 6 m/s 744 mmHg 63%
18:00 +16°C° 0 mm 6 m/s 743 mmHg 67%
19:00 +15°C° 0.1 mm 5 m/s 743 mmHg 71%
20:00 +14°C° 0.1 mm 5 m/s 743 mmHg 75%
21:00 +14°C° 0.1 mm 4 m/s 743 mmHg 78%
22:00 +13°C° 0.5 mm 5 m/s 742 mmHg 83%
23:00 +13°C° 0.5 mm 5 m/s 742 mmHg 88%

9 Mai, Duminică

Timp Temperatura Precipitaţii Vânt Presiune Umiditate
00:00 +13°C° 0.5 mm 5 m/s 742 mmHg 93%
01:00 +10°C° 0.9 mm 5 m/s 742 mmHg 93%
02:00 +9°C° 0.9 mm 5 m/s 743 mmHg 93%
03:00 +8°C° 0.9 mm 5 m/s 743 mmHg 94%
04:00 +8°C° 0 mm 5 m/s 744 mmHg 92%
05:00 +7°C° 0 mm 4 m/s 744 mmHg 91%
06:00 +6°C° 0 mm 4 m/s 745 mmHg 89%
07:00 +6°C° 0 mm 4 m/s 745 mmHg 86%
08:00 +6°C° 0 mm 4 m/s 745 mmHg 82%
09:00 +7°C° 0 mm 3 m/s 746 mmHg 79%
10:00 +8°C° 0.1 mm 3 m/s 746 mmHg 78%
11:00 +8°C° 0.1 mm 3 m/s 746 mmHg 77%
12:00 +8°C° 0.1 mm 3 m/s 746 mmHg 76%
13:00 +8°C° 0.7 mm 3 m/s 747 mmHg 80%
14:00 +8°C° 0.7 mm 3 m/s 747 mmHg 85%
15:00 +7°C° 0.7 mm 3 m/s 748 mmHg 89%
16:00 +7°C° 1.2 mm 3 m/s 748 mmHg 90%
17:00 +7°C° 1.2 mm 3 m/s 748 mmHg 91%
18:00 +7°C° 1.2 mm 3 m/s 749 mmHg 92%
19:00 +5°C° 0.7 mm 4 m/s 749 mmHg 92%
20:00 +5°C° 0.7 mm 4 m/s 749 mmHg 93%
21:00 +5°C° 0.7 mm 4 m/s 750 mmHg 93%
22:00 +5°C° 0.3 mm 5 m/s 750 mmHg 93%
23:00 +5°C° 0.3 mm 5 m/s 750 mmHg 94%

10 Mai, Luni

Timp Temperatura Precipitaţii Vânt Presiune Umiditate
00:00 +5°C° 0.3 mm 5 m/s 750 mmHg 94%
01:00 +5°C° 1 mm 5 m/s 750 mmHg 94%
02:00 +4°C° 1 mm 6 m/s 751 mmHg 94%
03:00 +4°C° 1 mm 6 m/s 751 mmHg 93%
04:00 +4°C° 0.7 mm 7 m/s 751 mmHg 93%
05:00 +4°C° 0.7 mm 7 m/s 752 mmHg 92%
06:00 +4°C° 0.7 mm 7 m/s 752 mmHg 92%
07:00 +4°C° 0 mm 7 m/s 753 mmHg 91%
08:00 +4°C° 0 mm 7 m/s 753 mmHg 90%
09:00 +4°C° 0 mm 7 m/s 753 mmHg 89%
10:00 +4°C° 0.1 mm 7 m/s 753 mmHg 89%
11:00 +4°C° 0.1 mm 7 m/s 754 mmHg 90%
12:00 +4°C° 0.1 mm 7 m/s 754 mmHg 90%
13:00 +4°C° 0 mm 7 m/s 754 mmHg 90%
14:00 +5°C° 0 mm 7 m/s 754 mmHg 90%
15:00 +5°C° 0 mm 6 m/s 754 mmHg 90%
16:00 +7°C° 0 mm 6 m/s 754 mmHg 90%
17:00 +8°C° 0 mm 6 m/s 754 mmHg 89%
18:00 +9°C° 0 mm 6 m/s 754 mmHg 89%
19:00 +8°C° 0 mm 6 m/s 754 mmHg 90%
20:00 +8°C° 0 mm 6 m/s 754 mmHg 91%
21:00 +7°C° 0 mm 6 m/s 754 mmHg 93%
22:00 +7°C° 0 mm 6 m/s 754 mmHg 93%
23:00 +7°C° 0 mm 5 m/s 754 mmHg 93%

11 Mai, Marţi

Timp Temperatura Precipitaţii Vânt Presiune Umiditate
00:00 +7°C° 0 mm 5 m/s 754 mmHg 93%
01:00 +7°C° 0 mm 5 m/s 754 mmHg 94%
02:00 +7°C° 0 mm 5 m/s 755 mmHg 94%
03:00 +7°C° 0 mm 5 m/s 755 mmHg 94%
04:00 +7°C° 0 mm 5 m/s 755 mmHg 93%
05:00 +8°C° 0 mm 5 m/s 755 mmHg 93%
06:00 +8°C° 0 mm 4 m/s 755 mmHg 92%
07:00 +11°C° 0 mm 4 m/s 755 mmHg 88%
08:00 +13°C° 0 mm 4 m/s 755 mmHg 83%
09:00 +15°C° 0 mm 4 m/s 755 mmHg 79%
10:00 +17°C° 0 mm 4 m/s 755 mmHg 75%
11:00 +19°C° 0 mm 4 m/s 755 mmHg 72%
12:00 +20°C° 0 mm 5 m/s 755 mmHg 68%
13:00 +21°C° 0.1 mm 5 m/s 755 mmHg 67%
14:00 +21°C° 0.1 mm 5 m/s 755 mmHg 65%
15:00 +22°C° 0.1 mm 5 m/s 755 mmHg 64%
16:00 +21°C° 0.4 mm 5 m/s 755 mmHg 68%
17:00 +20°C° 0.4 mm 4 m/s 755 mmHg 72%
18:00 +20°C° 0.4 mm 4 m/s 755 mmHg 76%
19:00 +18°C° 0.3 mm 4 m/s 755 mmHg 80%
20:00 +17°C° 0.3 mm 4 m/s 754 mmHg 85%
21:00 +16°C° 0.3 mm 3 m/s 754 mmHg 90%
22:00 +14°C° 0 mm 4 m/s 754 mmHg 90%
23:00 +14°C° 0 mm 4 m/s 754 mmHg 90%
Arată mai mult

Formular de consimțământ

Meteoprog și furnizorii noștri de servicii pot stoca și accesa date personale, precum cookies, identificatori de dispozitiv sau alte tehnologii similare pe dispozitivul dumneavoastră și procesa astfel de date pentru a personaliza conținutul și reclamele, dar și pentru a oferi caracteristici de social media și pentru a analiza traficul.

  • Stocarea și/sau accesarea informațiilor pe dispozitivul dumneavoastră

    Cookies, identificatori de dispozitiv sau alte informații pot fi stocate sau accesate pe dispozitiv în scopurile indicate mai sus.

  • Reclame și conținut personalizat, evaluarea reclamelor și a conținutului, informații despre audiențe și dezvoltarea produselor

    Reclamele și conținutul pot fi personalizate pe baza unui profil. Pot fi adăugate date suplimentare pentru a personaliza mai bine reclamele și conținutul. Performanța reclamelor și conținutului poate fi măsurată. Pot fi obținute informații despre utilizatorii care au văzut reclamele și conținutul. Aceste date pot fi utilizate pentru a dezvolta sau îmbunătăți experiența utilizatorilor, sistemele și software-ul.

Dând clic pe ‘Sunt de acord’, permiteți utilizarea cookie-urilor menționate, a identificatorilor de dispozitiv, balizelor web sau altor tehnologii similare. Setările pot fi modificate din browser-ul dispozitivului dumneavoastră.

În anumite scopuri, interesele legitime pot prima asupra consimțământului. Puteți citi mai multe informații în acest sens în Politica privind Confidențialitatea Datelor și Cookie.